www.pogodaiklimat.ru

Погода и климат >> Архив погоды >> Мадагаскар >> Самбава


ПОГОДА в Самбаве

  • Прогноз погоды в Самбаве
  • Монитор погоды в Самбаве

АРХИВ ПОГОДЫ в Самбаве

Время (UTC), дата Ветер
(напр.,м/с)
 
Видим.   Явления Облачность Т
(С)
Тd
(С)
f
(%)
Тe
(С)
Тes
(С)
Комфортность P
(гПа)
Po
(гПа)
Тmin
(С)
Tmax
(С)
R
(мм)
R24
(мм)
S
(см)
00 15.03 ЮЗ 3 30 км 6/4 600 м
[Cu Sc Ci sp]
+24.6 +23.4 93 +33 +33 очень
душно
1011.9 1011.3
03 15.03 ЮЗ 3 40 км 8/4 600 м
[Cu Sc Ci sp]
+24.0 +22.5 91 +31 +31 очень
душно
1012.8 1012.2
06 15.03 ЮЗ 5 40 км 6/1 600 м
[Cu Sc Ac trans Ci sp]
+29.6 +21.6 62 +38 +42 очень
душно
1012.3 1011.7 +24.0 +32.0
09 15.03 Ю 6 40 км 6/4 600 м
[Cu med, cong Ci sp]
+31.6 +22.6 59 +41 +46 опасность
перегрева
1010.8 1010.2
12 15.03 ЮВ 6 40 км 3/1 600 м
[Cu Sc Ci sp]
+31.0 +23.9 66 +43 +45 опасность
перегрева
1009.1 1008.5
15 15.03 ЮВ 6 25 км осадки на расстоянии 8/8 500 м
[Cu Sc]
+28.0 +23.4 76 +38 +38 очень
душно
1010.2 1009.6 +32.2
00 16.03 ЮЗ 2 30 км 5/3 600 м
[Cu Sc Ci sp]
+24.4 +22.0 86 +31 +31 очень
душно
1011.2 1010.6
03 16.03 Ю 3 40 км 9/1 600 м
[Cu med, cong Cs]
+24.0 +21.6 86 +31 +31 очень
душно
1011.8 1011.2
06 16.03 ЮЗ 5 40 км 8/1 600 м
[Cu med, cong Ci sp]
+30.0 +21.4 60 +38 +43 очень
душно
1012.7 1012.1 +23.9 +32.2
09 16.03 ЮВ 5 40 км 8/1 600 м
[Cu med, cong Ac trans Ci sp]
+31.2 +23.5 64 +42 +48 опасность
перегрева
1011.2 1010.6
12 16.03 Ю 6 25 км осадки на расстоянии 9/5 500 м
[Cu Sc Ci sp]
+30.0 +24.0 70 +41 +43 опасность
перегрева
1009.7 1009.1
15 16.03 ЮЗ 4 25 км осадки на расстоянии 9/5 500 м
[Cu Sc Ci sp]
+27.2 +23.6 81 +37 +37 очень
душно
1010.5 1009.9 +31.6
00 17.03 ЮЗ 2 30 км 3/3 600 м
[Cu Sc]
+24.5 +22.6 89 +32 +32 очень
душно
1010.8 1010.2
03 17.03 ЮЗ 3 40 км 4/1 600 м
[Cu Sc Cs]
+24.0 +22.5 91 +31 +31 очень
душно
1011.6 1011.0
06 17.03 Ю 6 40 км 1/1 600 м
[Cu hum]
+30.0 +22.4 64 +39 +43 очень
душно
1013.3 1012.7 +23.8 +31.6
09 17.03 Ю 6 40 км 1/1 600 м
[Cu hum]
+31.2 +22.8 61 +41 +48 опасность
перегрева
1011.7 1011.1
12 17.03 В 6 40 км 1/1 600 м
[Cb cap]
+30.4 +22.9 64 +40 +43 очень
душно
1009.7 1009.1
15 17.03 ЮВ 4 35 км 4/4 600 м
[Cb cap]
+28.2 +23.0 73 +38 +38 очень
душно
1011.6 1011.0 +31.8
00 18.03 ЮЗ 3 30 км 3/3 600 м
[Cu Sc]
+24.2 +22.8 92 +32 +32 очень
душно
1011.2 1010.6
03 18.03 Ю 1 40 км 1/1 600 м
[Cu Sc]
+23.8 +22.6 93 +31 +31 очень
душно
1011.8 1011.2
06 18.03 Ю 6 40 км 1/1 600 м
[Cu hum]
+29.6 +21.0 60 +37 +41 очень
душно
1013.8 1013.2 +23.6 +31.8
09 18.03 Ю 6 40 км 3/1 600 м
[Cu med, cong Cs]
+31.0 +20.3 53 +38 +44 очень
душно
1012.1 1011.5
12 18.03 ЮВ 5 40 км 4/1 600 м
[Cu med, cong Ci sp]
+30.6 +21.5 58 +39 +42 очень
душно
1010.0 1009.4
15 18.03 Ю 4 35 км 6/1 600 м
[Cb cap Ac trans Ci sp]
+28.6 +22.5 70 +38 +38 очень
душно
1011.4 1010.8 +32.0
00 19.03 З 1 25 км осадки на расстоянии 5/5 500 м
[Cb cap]
+24.5 +22.6 89 +32 +32 очень
душно
1010.6 1010.0
03 19.03 З 2 25 км осадки на расстоянии 8/6 500 м
[Cb cap Ci sp]
+24.1 +22.4 90 +31 +31 очень
душно
1011.6 1011.0
06 19.03 ЮЗ 2 25 км осадки на расстоянии 6/5 600 м
[Cb cap Ci sp]
+27.8 +21.6 69 +36 +41 очень
душно
1012.4 1011.8 +24.0 +32.0
09 19.03 Ю 4 40 км 6/5 600 м
[Cb cap Ci sp]
+29.9 +23.6 69 +41 +47 опасность
перегрева
1010.6 1010.0
12 19.03 Ю 4 40 км 4/3 600 м
[Cb cap Ci sp]
+30.6 +24.4 70 +43 +47 опасность
перегрева
1008.6 1008.0
15 19.03 Ю 3 25 км осадки на расстоянии 4/3 500 м
[Cb cap Ci sp]
+28.3 +24.9 82 +41 +41 опасность
перегрева
1010.0 1009.4 +31.4
00 20.03 ЮЗ 1 8000 м в посл. час дождь 10/10 300 м
[Cb cap]
+24.7 +23.8 95 +34 +34 очень
душно
1009.5 1008.9 19
03 20.03 ЮЗ 2 25 км осадки на расстоянии 4/3 500 м
[Cb cap Ci fib]
+24.5 +23.4 94 +33 +33 очень
душно
1010.1 1009.5 19
06 20.03 Ю 4 25 км осадки на расстоянии 3/1 600 м
[Cb cap Ac trans Ci sp]
+30.4 +24.0 69 +42 +48 опасность
перегрева
1011.6 1011.0 +24.4 +31.4 19
09 20.03 Ю 5 40 км 1/1 600 м
[Cb cap Ci sp]
+31.0 +23.2 63 +41 +51 опасность
перегрева
1009.3 1008.7
12 20.03 Ю 4 40 км 1/1 600 м
[Cb cap Ci sp]
+30.9 +25.4 73 +45 +50 опасность
перегрева
1007.4 1006.8
15 20.03 Ю 4 25 км осадки на расстоянии 3/1 500 м
[Cb cap Ci sp]
+28.6 +25.0 81 +41 +41 опасность
перегрева
1008.5 1007.9 +31.8
00 21.03 ЮЗ 1 30 км 1/1 500 м
[Cb cap]
+24.7 +22.8 89 +33 +33 очень
душно
1008.7 1008.1
03 21.03 З 1 25 км осадки на расстоянии 1/1 300 м
[Cb cap As trans Cs]
+24.4 +22.8 91 +32 +32 очень
душно
1009.9 1009.3
06 21.03 ЮЗ 2 40 км 1/1 600 м
[Cu med, cong Ci sp]
+30.0 +23.8 69 +41 +52 опасность
перегрева
1011.4 1010.8 +24.4 +31.8
09 21.03 Ю 4 40 км 3/1 600 м
[Cu Sc Cs]
+32.4 +24.5 63 +45 +57 опасность
перегрева
1009.6 1009.1
12 21.03 Ю 5 25 км осадки на расстоянии 1/1 600 м
[Cb cap Ci sp]
+31.0 +25.4 72 +45 +49 опасность
перегрева
1008.2 1007.6
15 21.03 ЮВ 4 25 км осадки на расстоянии 5/4 500 м
[Cb cap Ci sp]
+28.9 +25.2 80 +42 +42 опасность
перегрева
1009.4 1008.8 +32.6

 

Местоположение метеостанции Самбава (Мадагаскар): широта -14.28 долгота 50.17 высота над уровнем моря 5 м.

В архиве по умолчанию представлена погода в Самбаве за последнюю неделю. Архивные данные за месяц целиком и за предыдущие месяцы, начиная с января 2011 года, Вы можете получить, выбрав интересующий диапазон дат из раскрывающегося списка и нажав кнопку "Ввод!".


*Определитесь, кто Вы:
робот инопланетянин человек

Внимание! Время в таблицах - всемирное. Для получения местного времени необходимо прибавить поправку, которая равна 3 ч.

Смотрите также архив погоды в соседних городах и на ближайших метеорологических станциях:

Погода в Анталахе (Мадагаскар) (67 км)
Погода в Аэропорту Fascene (Мадагаскар) (227 км)
Погода в Анциранане (Мадагаскар) (234 км)
Погода в Анцухихи (Мадагаскар) (245 км)
Погода на Нуси Бураха (Мадагаскар) (314 км)
Погода в Амбоайтзилаозане (Мадагаскар) (413 км)
Погода в Туамасине (Мадагаскар) (434 км)
Погода в Махадзанге (Мадагаскар) (438 км)
Погода на Острове Глорьёз (Реюньон) (446 км)
Погода в Серже-Фролоу (Реюньон) (495 км)

Пояснения к столбцам:

Ветер - указаны скорость ветра в м/с - средняя за 10 мин, порывы в срок и между сроками (в фигурных скобках) и направление, откуда дует ветер: С - северный, СВ - северо-восточный, В - восточный, ЮВ - юго-восточный, Ю - южный, ЮЗ - юго-западный, З - западный, СЗ - северо-западный.
Видимость - горизонтальная дальность видимости в метрах или километрах. При видимости от 1 до 10 км при отсутствии осадков обычно наблюдается дымка, при ухудшении видимости до 1 км и менее - туман. В сухую погоду видимость может ухудшаться дымом, пылью или мглою.
Явления - указаны атмосферные явления, наблюдавшиеся в срок или в последний час перед сроком; фигурными скобками обозначены явления, наблюдавшиеся между сроками (за 1-3 часа до срока); квадратными скобками обозначены град или гололедные отложения с указанием их диаметра в мм.
Облачность - указаны через наклонную черту общая и нижняя облачность в баллах и высота нижней границы облаков в метрах; квадратными скобками обозначены формы облаков: Ci - перистые, Cs - перисто-слоистые, Cc - перисто-кучевые, Ac - высококучевые, As - высокослоистые, Sc - слоисто-кучевые, Ns - слоисто-дождевые, Cu - кучевые, Cb - кучево-дождевые. Подробнее классификацию облаков см. в Атласе облаков (PDF).
T - Температура воздуха - температура, измеренная на высоте 2 м над землей.
Td - Температура точки росы - температура, при понижении до которой содержащийся в воздухе водяной пар достигнет насыщения.
f - Относительная влажность воздуха - влажноcть воздуха, измеренная на высоте 2 м над землей.
Te - Эффективная температура - температура, которую ощущает одетый по сезону человек в тени. Характеристика душности погоды. При расчете учитывается влияние влажности воздуха и скорости ветра на теплоощущения человека.
Tes - Эффективная температура на солнце - температура, которую ощущает человек, с поправкой на солнечный нагрев. Характеристика знойности погоды. Зависит от высоты солнца над горизонтом, облачности и скорости ветра. Ночью, в пасмурную погоду, а также при ветре 12 м/с и более поправка равна нулю.
P - Атмосферное давление - приведенное к уровню моря атмосферное давление.
Po - Атмосферное давление - измеренное на уровне метеостанции атмосферное давление.
Tmin - Минимальная температура - минимум температуры воздуха на высоте 2 м над землей.
Tmax - Максимальная температура - максимум температуры воздуха на высоте 2 м над землей.
R - Количество осадков - Количество выпавших осадков за период времени, мм. При наведении курсора мыши на число - период времени, за который выпало указанное количество осадков.
R24 - Количество осадков - Количество выпавших осадков за 24 часа, мм.
S - Снежный покров - Высота снежного покрова, см. При наведении курсора мыши на число - состояние снежного покрова и степень покрытия местности в баллах.